Flag for Namibia Weather past 2 weeks in Swakopmund, Namibia

Now
64 °F

Sunny.


Feels Like: 64 °F
Forecast: 54 / 72 °F
Wind: 6 mph from West

Location: Walvis Bay

Current Time: Jul 26, 2014 at 12:36:50 PM

Latest Report: Jul 26, 2014 at 12:00 PM


Visibility: 10 mi

Pressure: 30.24 "Hg

Humidity: 34%

Dew point: 36 °F

Location of SwakopmundLocation

Historic Weather in Swakopmund — Graph

°F

Swakopmund temperature yesterday

Maximum temperature yesterday: 64 °F (at 2:00 PM)
Minimum temperature yesterday: 46 °F (at 12:00 AM)
Average temperature yesterday: 54 °F

Past Weeks' High & Low Weather Summary

 TemperatureHumidityPressure
High77 °F (Jul 23, 3:00 PM)100% (Jul 11, 11:00 AM)30.27 "Hg (Jul 11, 11:00 AM)
Low39 °F (Jul 13, 4:00 AM)28% (Jul 23, 3:00 PM)29.98 "Hg (Jul 23, 3:00 PM)
Average53 °F75%30.14 "Hg
* Reported Jul 11 11:00 AM — Jul 26 11:00 AM, Swakopmund, Weather by CustomWeather, © 2014

Note: Actual official high and low records may vary slightly from our data, if they occured in-between our weather recording intervals... More about our weather records

Advertising

Swakopmund weather history for previous 24 hours

 ConditionsComfort  
Time TempWeatherWind HumidityBarometerVisibility
11:00 AM
Jul 26
61 °FSunny.3 mph39%30.24 "Hg10 mi
10:00 AM59 °FRefreshingly cool.1 mph42%30.27 "HgN/A
9:00 AM50 °FSunny.No wind58%30.24 "Hg10 mi
8:00 AM46 °FSunny.3 mph66%30.24 "Hg10 mi
7:00 AM41 °FSunny.5 mph76%30.24 "Hg10 mi
6:00 AM41 °FQuite cool.6 mph76%30.24 "HgN/A
5:00 AM41 °FQuite cool.12 mph81%30.21 "HgN/A
4:00 AM43 °FQuite cool.10 mph76%30.21 "HgN/A
3:00 AM46 °FCool.14 mph71%30.21 "HgN/A
2:00 AM46 °FCool.14 mph82%30.21 "HgN/A
1:00 AM46 °FCool.13 mph82%30.24 "HgN/A
12:00 AM46 °FCool.13 mph82%30.27 "HgN/A
11:00 PM
Jul 25
48 °FCool.9 mph71%30.27 "HgN/A
10:00 PM46 °FCool.7 mph82%30.27 "HgN/A
9:00 PM50 °FCool.9 mph76%30.27 "HgN/A
8:00 PM52 °FCool.9 mph82%30.24 "HgN/A
7:00 PM55 °FCool.12 mph72%30.24 "HgN/A
6:00 PM55 °FCool.14 mph77%30.21 "HgN/A
5:00 PM59 °FCool.18 mph68%30.21 "HgN/A
4:00 PM61 °FSunny.18 mph63%30.21 "Hg10 mi
3:00 PM64 °FScattered clouds.16 mph49%30.21 "HgN/A
2:00 PM64 °FPassing clouds.17 mph52%30.24 "HgN/A
1:00 PM63 °FPartly sunny.16 mph59%30.24 "HgN/A
12:00 PM63 °FMild.9 mph59%30.27 "HgN/A
Weather by CustomWeather, © 2014

See weather overviewHow to use our weather pages